Weather in Kurakh

Russia / Republic of Dagestan     41°35′04″N   47°47′07″E
temp.,
°C
wind,
m/s
gust,
m/s
humid.,
%
clouds,
%
prec.,
mm/h
press.,
hPa
HPBL,
m
15 april, thu
thu1500:00+3wsw23532 0.0 101635
03:00+2wsw34535 0.0 101751
06:00+3w45460 0.0 101878
09:00+10w24280 0.0 10151747
12:00+12ese25365 0.0 10142111
15:00+10e335748 0.2 10151119
18:00+7e2277100 0.1 1017358
21:00+6sw1167100 0.1 101828
16 april, fri
fri1600:00+5wnw1150100 0.0 101714
03:00+5n0155100 0.0 101810
06:00+5w115297 0.0 101919
09:00+8e22485 0.0 1018813
12:00+11e434830 0.1 10161385
15:00+10e436060 0.9 10171068
18:00+7e217617 0.4 1018294
21:00+6wsw337149 0.4 101963
17 april, sat
sat1700:00+5w457061 0.0 101983
03:00+4w45670 0.0 101967
06:00+5w335890 0.0 101948
09:00+13ene1232100 0.0 1016957
12:00+14e3341100 0.0 10161314
15:00+12e4361100 0.0 1017805
18:00+7e2278100 0.0 1019212
21:00+5ene0182100 0.0 102144
18 april, sun
sun1800:00+5nw0179100 0.0 102023
03:00+5ene118490 0.0 102056
06:00+5ene1190100 0.0 1020109
09:00+11ese2265100 0.0 1016646
12:00+10e3372100 0.0 1016525
15:00+14ene145425 0.1 10121053
18:00+8ene218699 0.0 1016171
21:00+8wsw1172100 0.0 101538
19 april, mon
mon1900:00+8nw1172100 0.0 101524
03:00+6w2272100 0.0 101626
06:00+6e2282100 0.0 101886
09:00+6e339388 0.1 1019286
12:00+7e439193 0.1 1018341
15:00+6e329399 0.1 1019301
18:00+5ene219695 0.1 1020134
21:00+4e2298100 0.1 102177